Theta_e
338 339 340 340 341 341 341 343 344 344 346 348 349 349 350 351 352 353 353 354 354 355 356 356 356 356 356 356 357 358 358 358 358 357 357 357 357 358 358 358 358 360 359 360 361 363 366 368 368 368 369 369 369 369 370 370 369 368 369 369 367 366 366
336 337 338 339 340 341 342 344 345 345 346 348 348 350 350 351 353 353 354 355 355 355 356 356 356 357 357 357 358 358 358 358 358 358 358 358 359 360 360 360 359 361 362 362 363 366 367 367 367 368 368 369 368 369 368 369 369 369 368 369 366 364 364
334 336 338 339 339 340 343 343 345 345 346 346 348 349 349 352 354 354 354 354 355 356 356 356 357 357 357 358 358 358 358 358 357 357 356 356 357 356 359 360 360 360 360 363 365 365 366 366 367 368 368 367 366 368 369 368 369 368 369 370 367 364 364
333 335 338 339 341 342 343 344 344 344 345 346 347 348 350 353 354 355 355 355 355 355 355 356 357 356 357 358 357 358 358 358 358 356 356 356 356 357 358 359 360 360 360 360 361 363 363 365 365 366 367 367 368 368 368 368 367 368 369 369 366 365 364
334 336 337 339 339 341 342 342 343 344 344 346 347 350 350 352 352 354 355 355 354 354 355 356 356 357 358 358 357 357 358 358 358 357 357 357 359 359 358 356 357 358 359 360 362 363 364 364 363 364 365 366 366 367 367 368 367 369 368 367 364 363 362
332 334 336 338 339 340 341 342 343 343 344 344 346 348 349 350 351 351 352 354 354 355 356 357 356 357 357 358 358 357 359 359 359 359 358 358 358 357 356 357 356 357 357 359 360 360 362 362 362 363 362 363 363 363 364 366 366 367 367 366 364 363 362
332 334 335 337 338 339 340 341 342 343 344 345 346 348 349 348 349 350 351 352 353 354 354 354 355 356 358 358 358 359 358 358 359 358 358 358 359 358 357 358 358 357 358 360 359 360 360 361 362 363 363 362 363 362 364 366 366 367 368 366 364 363 364
334 334 337 337 338 339 340 342 342 343 344 345 345 346 346 347 348 349 350 351 352 353 353 353 354 357 357 358 358 358 359 358 358 358 358 357 357 357 357 358 358 359 359 358 359 360 358 360 361 363 362 361 363 364 364 367 368 366 367 365 364 363 362
333 336 336 336 337 338 340 342 342 343 344 344 344 346 346 347 347 348 350 351 352 352 352 353 354 356 358 358 358 359 359 359 358 358 358 357 356 355 356 357 358 359 358 356 357 360 359 359 359 362 363 362 363 365 365 366 366 366 365 365 365 364 364
332 336 338 337 338 338 340 342 343 344 344 344 345 346 346 346 348 348 349 350 351 351 352 353 354 355 357 357 357 358 359 358 358 357 357 356 356 356 356 356 357 358 357 356 356 357 359 360 360 362 364 362 363 364 364 364 364 365 365 365 365 365 365
330 338 339 337 337 339 341 341 342 344 344 345 346 345 347 347 347 348 349 350 350 351 352 353 355 354 356 356 355 356 357 357 357 356 356 356 356 356 356 356 356 357 357 356 356 357 358 360 361 362 362 360 361 362 363 363 364 364 363 364 365 365 364
331 335 339 338 339 340 339 342 344 346 347 347 345 344 347 348 347 347 349 350 351 351 352 352 354 354 355 354 354 355 357 357 356 355 356 356 355 356 356 356 356 356 357 357 356 357 357 359 359 360 361 361 361 362 363 364 364 365 364 362 364 365 364
329 332 336 337 340 340 344 345 346 347 348 345 343 344 346 346 347 347 350 350 351 351 352 353 354 354 354 354 354 356 357 356 356 356 356 357 356 356 356 355 355 355 355 357 357 356 356 357 359 360 360 361 361 361 363 364 364 365 365 364 364 364 365
333 331 333 337 339 341 342 346 347 347 347 345 343 345 345 346 346 347 350 349 350 351 352 352 353 354 354 354 354 356 357 357 357 357 357 357 359 358 357 356 356 357 357 357 357 356 356 356 357 359 360 360 361 362 363 364 364 364 365 365 364 364 364
321 326 332 333 339 343 343 342 346 347 346 345 345 345 345 345 346 349 351 350 351 351 352 354 354 354 354 354 354 357 358 358 359 358 359 358 359 358 357 357 357 357 358 358 357 356 357 358 357 358 359 360 361 362 362 362 362 363 364 363 364 364 362
316 318 323 330 336 337 343 344 345 348 348 348 345 345 344 345 347 348 348 349 349 351 352 354 354 354 353 354 355 358 359 359 359 359 359 359 359 359 358 358 358 357 357 357 357 358 358 359 358 358 358 358 360 361 362 362 362 355 341 346 362 364 362
321 317 318 327 333 338 341 343 345 348 348 347 347 347 345 347 347 347 346 349 349 351 352 354 355 355 354 354 357 358 359 359 359 359 358 359 359 359 359 358 358 358 358 358 358 358 359 358 357 357 357 357 358 359 360 360 360 341 334 334 338 357 363
332 326 321 320 327 335 340 341 344 346 346 345 345 347 347 348 347 347 346 348 348 350 352 352 353 353 355 356 357 358 358 358 358 358 358 358 358 359 359 359 358 358 358 358 357 359 359 358 357 358 357 357 357 357 358 359 345 334 332 332 331 339 360
340 333 326 324 325 333 336 338 342 345 344 345 345 345 346 348 346 347 348 350 350 351 351 351 351 353 355 355 357 358 358 358 357 357 357 358 358 358 359 358 358 358 357 356 358 358 358 358 357 358 358 357 358 357 357 358 340 331 330 331 330 329 342
342 336 330 328 326 328 336 341 342 345 346 348 348 347 348 349 347 349 350 352 353 351 353 353 353 355 354 356 357 357 358 358 357 357 357 358 358 358 358 357 357 357 358 357 358 358 357 357 358 358 359 358 358 359 358 358 342 329 327 327 327 328 333
343 340 331 331 332 331 339 344 345 346 348 346 347 349 349 349 349 351 352 353 352 353 356 354 354 355 355 355 356 357 357 358 357 357 357 358 358 358 357 357 358 357 357 356 356 357 357 356 357 357 358 358 357 358 357 357 337 326 324 323 323 325 330
343 344 339 333 336 339 343 341 343 343 345 347 347 347 348 348 349 349 350 352 352 353 354 354 355 354 355 355 356 356 357 357 357 357 358 358 358 357 357 357 358 357 358 357 356 357 357 358 357 357 357 358 357 356 356 357 333 326 323 322 322 324 344
344 346 345 340 338 340 347 346 347 345 350 348 347 347 347 348 349 349 351 351 352 355 354 354 354 354 355 355 355 356 356 356 356 357 358 358 357 357 356 357 357 358 359 357 356 355 355 357 356 358 357 357 357 357 357 357 340 323 321 320 319 325 351
346 348 347 340 341 345 347 347 348 351 346 348 347 349 351 351 350 353 353 352 354 355 354 353 353 355 356 354 356 356 357 357 357 357 358 358 357 356 357 357 358 358 359 357 355 354 356 357 357 358 358 357 357 357 357 357 345 321 319 318 317 331 353
345 347 349 345 340 341 343 348 348 348 350 349 348 352 355 354 353 352 353 354 353 352 352 352 353 355 356 356 357 358 358 358 358 358 358 358 358 358 357 357 358 358 359 358 357 356 358 358 357 357 359 358 357 349 353 357 348 322 319 317 315 330 355
342 345 348 349 345 345 350 353 352 347 348 346 350 352 354 353 351 351 352 353 352 351 352 353 356 357 358 358 359 359 359 359 360 360 358 358 359 360 359 360 359 359 359 358 358 357 357 357 358 357 357 358 358 357 356 356 358 351 318 316 314 319 352
342 345 346 348 350 351 348 349 348 346 346 350 355 352 352 351 350 352 354 354 353 352 353 357 360 360 361 361 360 360 360 360 360 360 359 360 360 360 360 360 359 359 359 358 358 358 358 358 358 357 358 358 359 359 358 358 358 358 318 315 313 315 326
341 344 347 348 351 352 352 347 350 350 350 354 351 351 352 353 353 353 355 353 353 355 357 361 363 363 363 363 361 361 361 361 362 362 360 362 362 362 361 362 361 361 360 359 359 359 359 360 359 358 358 359 359 360 360 357 346 360 326 316 313 313 314
335 338 342 345 347 349 351 353 353 351 350 348 349 350 351 351 353 353 354 353 356 357 359 361 361 363 363 363 361 362 362 363 363 362 361 362 363 363 362 363 362 362 362 361 360 360 359 359 358 358 357 359 359 360 362 363 359 335 351 318 313 311 311
333 335 338 343 346 347 350 351 352 352 353 349 351 353 353 352 355 355 355 355 360 361 361 362 362 363 362 362 362 363 363 363 364 364 364 364 365 364 363 363 363 362 362 362 360 359 358 357 358 357 356 356 357 359 361 364 363 343 331 339 313 312 310
330 332 335 338 342 346 348 349 351 352 353 356 359 358 358 358 357 357 356 363 364 363 362 362 362 361 361 360 361 363 363 364 364 364 365 366 366 364 363 364 364 361 363 361 360 359 357 357 358 357 357 356 357 358 360 362 362 363 346 329 322 313 311
330 333 335 337 340 343 346 348 349 350 351 353 357 360 363 362 361 359 362 363 365 365 365 364 362 361 360 361 362 362 363 363 364 366 366 366 365 364 364 363 362 361 362 361 359 359 358 357 357 357 358 357 358 359 360 362 363 362 363 341 334 324 314
328 331 333 335 338 342 343 345 345 346 348 349 352 355 357 360 362 363 363 364 365 366 368 366 364 363 364 364 363 364 363 363 361 362 364 365 364 364 365 364 364 363 361 361 359 358 358 358 358 357 356 357 359 360 361 362 362 362 361 362 357 352 341
326 328 332 335 338 341 343 344 345 345 346 347 350 352 354 356 358 360 362 364 365 365 366 365 364 363 363 363 364 364 365 364 363 364 363 364 364 363 363 364 364 363 362 360 360 359 358 358 357 357 358 357 359 360 360 360 361 362 361 361 360 359 357
326 328 330 332 336 342 342 344 345 345 345 346 349 351 353 354 356 359 363 364 366 368 366 364 365 366 364 363 362 361 362 363 364 363 363 365 367 345 336 350 364 364 364 365 366 364 361 360 360 361 362 361 361 360 360 361 360 362 341 362 340 354 359
325 327 329 331 335 340 343 344 346 346 345 346 349 350 351 352 354 357 358 363 367 371 367 363 364 367 367 366 365 364 362 362 362 362 361 362 353 341 329 308 299 310 347 367 339 333 329 334 362 363 363 362 363 366 362 362 363 335 325 325 321 321 324
324 326 327 329 332 335 339 342 344 345 345 346 348 349 349 350 351 354 356 359 362 367 369 369 367 365 365 364 365 362 365 364 363 365 364 359 353 350 344 340 329 300 295 304 309 307 309 312 313 317 329 359 366 336 306 307 304 308 310 311 310 311 310
325 326 327 328 330 332 335 338 340 341 342 344 345 346 348 348 348 351 354 357 359 361 365 368 367 366 365 366 364 362 364 364 362 360 358 355 354 353 350 349 345 336 305 297 300 299 294 293 295 301 309 315 335 341 335 308 299 298 299 299 299 298 298
Wind_Speed
17 17 17 17 18 19 20 20 21 20 20 19 19 22 21 19 19 17 17 18 19 18 18 18 18 16 18 17 16 15 14 13 12 12 12 11 11 10 10 10 10 10 9 9 9 9 7 7 7 7 7 7 7 7 7 6 7 6 6 6 6 6 7
15 17 18 18 19 20 20 19 20 18 18 19 19 22 21 21 19 18 17 18 20 20 19 18 18 17 17 16 14 15 16 15 14 12 11 10 9 9 10 10 11 10 10 9 8 8 7 8 8 8 7 7 8 7 7 7 7 7 6 6 6 7 7
16 17 18 18 19 20 21 19 20 20 21 20 20 20 22 21 19 20 18 18 19 19 18 19 19 18 17 16 15 17 16 15 14 14 14 13 14 14 12 11 10 10 10 9 8 7 7 8 8 8 8 7 7 8 7 7 8 8 7 6 6 7 7
15 17 19 21 22 21 22 22 23 22 21 23 23 23 22 20 20 19 18 20 20 19 20 19 19 18 17 17 16 15 16 16 16 15 16 14 14 13 11 10 9 9 8 10 9 8 7 8 9 8 8 8 7 7 8 8 8 8 8 7 6 7 8
16 17 16 16 18 16 17 19 19 20 23 25 23 21 21 20 20 19 19 20 22 23 22 20 18 17 15 16 13 13 16 17 16 15 14 13 12 12 12 13 12 12 11 10 9 8 8 8 9 9 8 8 8 7 8 8 8 7 8 8 7 8 7
15 15 16 17 18 18 20 22 23 24 24 24 24 23 22 23 21 23 22 21 20 20 19 19 19 17 17 17 15 14 15 15 15 15 14 13 13 13 13 13 13 13 12 11 10 10 10 9 10 10 10 9 10 9 9 8 8 8 8 8 7 8 8
14 16 16 17 18 18 21 22 24 24 23 22 21 19 19 21 23 22 20 21 22 22 22 21 20 18 16 15 16 16 17 16 15 16 14 14 14 14 13 13 12 12 12 10 10 10 10 10 10 10 10 10 9 10 9 8 8 7 7 7 8 9 9
14 14 16 18 18 19 20 21 22 21 19 17 18 20 23 22 21 22 23 22 22 21 20 21 20 18 17 16 15 17 17 17 16 16 14 15 14 15 13 13 12 12 10 11 11 10 11 11 11 10 10 10 11 10 10 9 9 8 7 8 9 9 8
15 16 18 19 19 19 19 19 19 19 21 22 23 23 24 22 22 23 23 22 21 21 22 22 20 18 16 16 16 17 16 16 15 15 16 17 15 16 15 14 13 12 12 12 11 11 12 11 12 10 11 10 10 10 10 10 9 9 8 8 9 9 9
12 12 13 14 15 15 15 14 16 15 17 18 17 17 20 20 20 20 20 21 21 23 23 21 19 18 17 17 17 17 16 16 15 17 17 17 15 16 16 14 13 12 13 13 12 11 11 12 12 11 10 11 10 10 10 10 9 9 9 10 10 9 10
8 9 9 12 13 14 13 15 18 17 19 18 17 19 19 19 20 20 21 20 21 21 22 20 18 18 18 19 19 18 17 17 16 17 17 17 15 17 17 15 13 12 14 13 13 13 11 11 11 11 11 11 11 11 11 11 10 10 10 10 9 10 9
5 6 8 12 13 13 15 16 16 14 15 14 18 20 18 17 19 20 20 21 20 20 20 19 18 18 18 18 19 17 18 17 17 18 19 18 17 17 16 15 14 13 13 14 14 13 12 12 11 11 12 12 12 11 11 10 10 10 11 11 10 9 10
7 8 9 11 12 13 12 12 14 16 16 17 21 20 18 19 20 19 18 20 20 19 19 18 18 17 18 19 19 17 17 18 18 17 17 17 16 15 15 15 15 15 14 14 14 14 13 13 13 12 12 12 12 12 12 11 11 10 10 10 10 10 10
8 8 10 9 10 11 13 15 15 15 17 19 19 19 18 19 19 20 19 20 19 19 18 16 17 17 18 18 18 16 17 17 17 17 16 15 15 14 15 15 14 14 13 13 14 15 15 14 14 13 12 13 12 12 11 11 11 11 11 10 11 10 11
8 9 10 13 13 14 15 16 15 16 17 18 19 19 20 18 18 16 16 17 17 18 19 18 17 18 18 17 17 16 16 16 15 14 15 15 14 15 15 14 14 14 13 13 13 12 14 14 13 13 13 13 12 12 11 11 11 10 10 11 12 11 11
11 12 12 11 14 17 16 17 17 16 17 16 20 20 20 18 17 18 19 19 20 19 18 16 17 18 18 18 16 15 15 15 14 14 14 14 14 14 14 13 13 13 14 14 14 13 12 13 13 13 13 13 12 12 11 11 10 11 15 12 10 11 10
13 14 16 14 13 16 17 18 17 16 16 18 18 19 20 17 18 19 21 19 19 18 18 18 16 16 17 17 16 15 15 14 14 13 14 14 13 13 13 13 12 12 13 13 13 14 12 12 13 13 13 13 13 13 12 11 11 14 14 15 15 11 10
13 14 16 17 16 15 16 18 16 17 20 21 22 20 18 16 17 18 20 19 20 19 18 18 18 18 16 16 14 15 15 14 14 14 14 13 14 14 14 13 13 13 13 13 14 13 12 13 14 13 13 12 13 13 13 12 13 14 15 16 17 14 12
14 15 16 16 16 15 16 18 19 21 22 22 21 21 22 20 20 19 19 19 18 17 18 18 19 17 16 15 15 15 15 14 15 15 14 15 15 14 13 14 14 14 14 15 14 12 13 13 13 14 13 13 13 14 14 13 13 16 17 17 17 17 14
14 15 15 15 16 17 16 15 15 18 20 20 23 24 21 21 21 17 16 15 14 18 16 16 16 15 15 15 15 15 15 15 15 15 15 14 14 14 14 14 15 14 13 12 12 13 13 14 14 13 13 13 14 13 13 14 12 16 17 17 17 17 14
13 12 13 13 13 15 14 15 14 15 15 16 18 15 15 15 14 14 15 15 17 15 13 14 15 14 15 15 15 14 15 15 15 15 15 15 15 14 15 15 14 14 13 13 13 13 13 14 15 14 14 14 14 13 13 13 14 14 17 17 17 17 14
13 12 12 12 12 12 11 16 16 18 18 17 17 17 17 17 16 17 16 16 16 15 14 15 14 15 14 15 16 17 16 16 16 15 15 15 14 15 15 14 14 14 13 12 13 12 12 12 13 13 14 14 14 14 14 14 15 15 16 17 17 17 11
13 13 12 11 11 10 8 9 10 12 11 13 16 17 18 17 17 17 16 17 16 15 15 15 15 16 16 16 16 16 16 16 16 15 15 15 15 15 15 14 14 13 12 12 13 12 13 13 13 12 13 14 14 14 14 14 14 16 17 17 17 13 9
11 11 9 8 7 8 10 11 12 13 15 15 15 15 14 16 16 15 16 16 15 15 16 17 17 16 16 16 16 16 16 16 16 15 15 15 16 16 14 14 13 13 12 13 14 14 13 12 12 13 13 14 15 14 14 15 13 16 17 17 17 15 11
11 11 10 6 4 11 12 12 14 16 15 16 14 13 13 15 16 16 15 15 16 17 18 18 17 17 17 17 16 16 16 16 16 16 16 15 15 15 15 15 14 13 12 13 13 13 12 12 12 12 12 14 15 14 16 14 13 17 18 19 19 16 11
13 13 12 7 4 4 11 12 14 16 17 18 16 15 15 16 16 17 16 16 17 18 18 18 17 17 16 16 16 16 15 15 15 15 16 15 15 14 14 13 13 13 12 12 12 12 12 12 12 13 12 12 14 13 15 15 14 12 19 19 19 20 13
12 12 11 11 8 3 8 12 15 16 18 15 14 16 17 16 16 15 15 15 17 18 19 17 15 15 14 14 15 15 16 14 15 16 16 15 15 14 13 12 12 12 12 13 12 12 12 13 12 12 12 12 12 13 14 13 14 12 19 19 20 21 18
14 14 12 11 12 8 2 6 8 13 14 13 16 17 16 15 15 14 14 15 18 19 16 13 13 13 13 13 14 15 15 15 14 15 14 14 12 12 12 11 12 12 12 12 11 12 12 12 11 11 11 11 12 12 12 13 14 12 15 19 19 20 22
15 15 15 14 12 11 6 5 6 7 11 14 17 16 16 18 16 15 15 17 16 14 12 12 13 12 13 13 14 13 14 14 15 14 12 12 13 13 13 12 12 12 11 12 12 12 13 13 14 13 12 11 12 11 12 12 10 16 12 17 20 21 21
16 16 15 14 12 10 8 7 6 7 7 9 11 12 13 16 14 14 15 15 10 10 10 11 12 12 13 12 13 13 13 14 14 14 13 13 13 13 13 12 12 12 11 13 12 11 13 14 13 14 14 14 13 13 13 11 10 12 17 13 19 19 21
13 13 14 15 15 12 10 8 9 8 8 6 7 7 9 10 12 13 13 8 9 10 12 12 12 12 12 13 13 13 13 12 13 14 13 13 13 12 12 13 12 12 13 14 14 13 14 13 13 13 13 13 13 13 13 11 10 10 12 18 16 19 20
17 16 16 16 17 16 11 11 11 12 11 10 8 7 6 7 9 10 7 7 8 10 10 11 12 12 13 12 12 13 13 13 13 13 13 13 12 13 12 13 12 12 12 14 14 14 14 14 13 13 13 13 13 13 12 10 9 10 9 10 14 14 18
15 14 15 16 16 15 12 12 12 13 12 12 9 8 8 8 7 7 7 7 7 8 8 10 10 10 10 10 11 11 12 13 12 12 12 13 12 12 12 11 11 11 11 12 12 14 14 14 14 14 13 13 13 12 9 9 9 9 9 9 8 9 10
14 14 14 14 15 16 14 13 13 12 12 10 9 9 8 8 7 7 8 8 7 7 8 8 9 9 10 11 9 8 9 10 11 11 10 11 12 12 12 11 11 11 12 12 12 14 14 14 14 14 13 13 11 10 9 9 9 9 9 9 9 9 9
14 13 13 15 14 14 13 12 12 12 12 10 9 8 8 8 6 6 6 7 8 9 9 8 8 8 8 7 7 7 7 7 8 9 9 8 6 3 3 2 8 10 11 11 11 12 12 12 11 10 10 11 10 9 9 8 8 10 11 11 10 10 9
14 14 13 13 12 13 13 13 12 11 11 9 8 8 8 8 7 6 5 4 3 5 8 10 8 7 6 6 7 7 7 8 8 9 9 7 6 5 4 6 7 7 2 5 4 2 2 3 9 9 9 10 10 8 9 8 5 2 7 7 6 8 5
14 13 13 13 13 15 13 12 12 11 11 9 8 8 8 8 7 7 6 6 4 3 5 5 5 5 5 5 5 6 6 6 7 8 5 5 6 7 7 5 6 14 12 8 6 5 5 5 7 8 6 6 7 4 11 8 8 10 10 9 8 7 8
15 14 13 12 12 13 13 12 12 11 10 9 9 9 9 9 9 8 7 6 5 4 3 3 4 4 4 3 4 5 4 5 6 8 6 5 6 7 7 7 6 4 12 13 10 11 11 10 10 9 8 10 7 6 3 8 9 10 10 11 12 13 14
Wind_Direction
197 197 197 192 191 193 195 193 189 190 190 189 188 189 189 188 188 184 184 183 187 188 186 187 189 191 195 197 195 195 196 195 195 197 199 202 204 201 196 198 201 202 205 209 211 211 209 201 203 208 210 211 215 210 206 202 202 202 203 204 218 234 234
198 199 197 192 193 195 195 190 188 188 188 189 190 189 190 188 185 182 182 182 185 188 185 187 189 191 193 195 194 194 194 196 195 196 199 200 198 200 197 197 199 200 202 208 208 207 203 203 206 210 211 210 214 211 207 206 206 205 206 201 214 230 232
200 199 198 196 197 197 193 188 186 190 191 190 189 190 191 187 183 182 182 182 186 188 186 188 190 191 192 193 191 196 194 195 195 196 199 202 203 207 203 201 202 204 206 204 206 207 205 208 205 210 212 214 215 208 208 208 206 207 208 204 209 228 231
200 198 197 197 197 194 188 186 188 191 193 192 192 190 188 184 180 180 182 183 185 186 188 189 189 192 192 190 190 190 194 196 198 200 203 205 204 201 199 196 199 205 200 205 206 206 206 203 206 209 208 216 215 213 209 210 209 207 207 208 219 229 233
202 198 198 197 197 188 185 190 189 190 193 194 192 188 189 182 181 183 185 186 188 190 190 188 190 191 192 191 190 192 193 195 197 200 202 203 200 194 198 202 199 204 207 204 199 196 198 202 211 210 210 214 219 214 213 208 210 206 212 216 225 232 235
198 194 197 198 197 194 191 190 190 191 193 191 189 186 186 184 187 190 187 184 188 190 188 187 190 189 191 192 192 191 191 194 195 197 198 198 194 195 200 202 203 202 204 201 200 202 201 207 212 212 214 215 220 222 220 214 211 209 209 209 223 233 237
195 193 198 200 197 196 193 193 194 194 191 192 190 184 182 185 189 190 188 189 187 187 187 188 189 189 190 189 192 190 189 190 192 196 197 199 198 201 204 203 203 202 206 198 202 200 202 206 210 211 213 219 219 220 218 214 211 205 205 205 221 232 236
193 192 198 197 197 196 194 194 194 193 189 186 185 185 185 189 187 187 189 188 186 188 188 188 188 190 188 189 191 192 191 193 193 195 197 200 201 203 202 202 200 200 197 201 201 200 206 207 210 210 212 216 217 216 217 214 210 209 204 208 213 223 229
198 195 196 198 198 197 195 191 187 184 180 181 185 186 186 186 187 189 189 186 187 188 191 190 190 187 184 186 189 192 192 192 193 192 195 198 201 205 205 204 202 197 200 207 209 203 208 210 211 207 207 212 215 214 217 216 216 213 213 213 213 217 220
200 197 199 200 201 197 194 183 173 175 176 178 181 182 185 189 188 187 186 187 186 189 188 189 187 185 183 185 190 191 189 191 192 193 195 199 203 206 207 205 202 198 202 206 209 206 205 210 209 205 202 209 213 214 216 216 216 216 215 217 217 218 221
214 200 191 193 193 187 178 174 174 179 180 181 181 183 183 184 184 184 186 186 188 188 186 185 185 185 185 188 191 191 192 193 192 193 196 201 203 205 204 204 202 199 203 205 210 211 206 205 206 206 205 211 213 215 216 216 215 216 221 222 220 221 224
231 213 197 194 188 174 182 185 185 185 183 182 184 187 182 180 182 184 184 187 186 184 183 184 184 185 184 186 190 192 192 192 193 196 197 199 202 202 202 201 202 200 201 204 208 210 211 206 205 206 208 212 214 215 216 214 215 216 220 224 222 220 223
214 204 207 204 188 187 183 181 181 183 183 184 186 187 182 183 184 184 182 182 184 185 183 181 180 181 182 185 189 189 190 190 193 195 197 197 200 199 199 201 202 202 203 203 208 209 212 211 208 206 208 211 213 216 215 214 214 216 218 221 223 223 223
229 210 203 190 188 185 187 191 188 185 183 185 186 185 181 184 184 184 180 179 182 182 180 179 178 178 181 183 188 187 187 190 192 195 195 195 194 196 198 199 200 202 204 203 206 211 213 213 210 208 209 212 213 215 215 213 215 215 216 217 219 222 226
263 237 213 194 188 187 192 191 190 186 184 184 181 179 179 179 180 179 175 177 179 181 181 175 175 177 180 183 187 189 185 186 190 193 192 191 189 193 195 197 198 199 200 201 206 210 214 214 213 211 212 213 214 215 213 217 218 217 213 215 216 222 228
260 255 244 217 194 197 196 195 189 184 180 175 182 179 179 178 177 175 174 178 181 182 181 174 178 177 182 185 188 185 180 182 186 188 189 188 189 190 193 196 197 198 200 203 206 209 211 214 213 214 212 211 211 212 214 218 221 213 206 207 216 218 224
257 247 242 231 211 198 198 195 189 180 175 181 182 177 180 178 176 179 182 181 179 179 179 176 171 177 183 188 187 182 181 183 187 185 189 190 190 189 193 196 197 201 204 206 208 210 208 207 211 214 216 215 214 213 215 219 222 208 198 204 210 219 226
271 256 245 242 230 209 200 195 182 175 181 185 185 181 179 172 173 175 183 181 182 180 178 179 181 184 185 187 178 179 182 186 186 188 191 189 192 192 195 196 200 201 202 204 206 206 207 209 211 216 219 219 219 219 218 221 217 202 199 202 205 209 223
272 263 250 237 232 220 207 196 184 182 185 184 183 183 184 175 175 179 181 176 178 174 179 182 184 184 184 185 179 181 182 182 186 187 189 191 192 193 193 197 200 202 203 207 208 207 209 213 213 215 216 218 220 222 222 227 211 198 199 201 201 204 213
285 275 263 250 236 221 206 193 188 184 181 180 182 183 179 176 179 176 173 165 158 170 176 175 178 177 180 182 181 182 182 184 185 188 191 190 190 192 194 197 201 202 203 206 205 207 209 210 214 216 215 217 220 223 227 229 214 196 199 200 200 200 201
301 294 270 251 231 216 192 178 180 176 173 179 178 168 163 167 169 160 162 158 168 174 168 169 172 174 179 182 182 181 184 185 188 190 190 189 190 192 196 198 200 201 203 205 207 207 208 211 214 216 217 217 219 223 227 230 219 195 197 199 198 197 197
309 308 286 250 220 203 188 186 182 181 179 177 170 174 170 171 172 171 169 167 169 171 172 172 176 178 180 183 185 187 186 186 188 190 190 190 191 194 197 199 199 200 200 206 211 213 213 213 217 217 217 218 221 225 229 232 212 198 197 198 198 191 200
316 311 296 266 215 194 169 167 159 168 150 161 171 169 170 168 169 166 162 166 170 167 170 174 178 182 185 189 188 188 188 189 189 189 191 190 192 196 198 198 200 202 201 205 211 212 212 215 214 217 220 221 220 223 228 234 210 196 197 196 191 184 208
330 329 319 283 201 158 153 154 149 142 159 158 166 164 159 160 161 157 158 167 165 165 170 178 185 186 186 189 189 188 188 188 189 190 190 191 195 196 199 201 203 204 200 204 208 213 215 215 218 219 220 221 222 219 224 231 212 189 196 194 184 189 203
351 350 347 339 215 166 161 149 152 150 149 153 157 153 147 152 156 156 162 164 167 174 180 185 187 187 187 188 187 187 187 188 190 191 191 193 195 197 200 201 202 203 200 205 209 215 216 217 219 219 219 221 223 217 222 233 222 188 194 191 186 192 209
5 4 6 5 6 161 141 133 131 148 153 161 160 155 157 156 161 167 168 170 171 178 185 188 189 187 186 186 187 188 188 188 189 191 193 194 196 198 200 199 201 202 201 204 207 211 216 215 217 219 221 221 222 223 222 230 235 196 189 189 189 191 202
23 22 19 16 21 38 147 152 154 159 165 161 151 156 161 163 165 166 164 165 176 186 191 186 182 179 181 183 186 187 189 190 191 192 196 198 198 198 200 199 201 201 201 204 207 211 215 217 218 222 225 225 225 228 226 226 227 212 185 191 189 192 199
20 32 33 34 31 30 77 151 154 156 155 153 159 163 162 162 163 163 164 171 186 193 185 175 171 171 173 176 183 187 189 191 192 193 198 200 197 195 199 201 203 203 203 206 207 208 212 212 217 220 225 226 227 229 230 225 215 229 187 189 189 192 197
15 26 29 30 32 29 41 73 99 139 155 163 165 165 167 168 166 169 172 186 192 181 175 167 171 173 177 180 187 189 190 192 189 189 196 196 196 193 195 195 197 199 198 199 203 208 213 219 225 228 230 234 238 236 231 226 213 213 212 188 192 192 198
10 15 15 28 40 38 41 65 75 95 129 153 162 164 165 168 166 172 179 188 168 164 161 160 168 168 176 178 184 185 188 191 191 192 197 196 192 193 196 197 196 198 201 207 208 210 221 227 226 230 235 237 239 238 238 227 225 204 209 198 192 196 198
4 10 13 18 25 32 52 62 78 85 80 80 111 132 152 164 165 168 173 151 144 162 166 166 165 170 177 181 185 187 192 192 194 195 196 195 190 191 197 199 197 203 211 214 217 218 226 229 227 225 229 233 237 239 237 228 217 226 200 202 194 197 200
6 10 12 16 18 9 27 63 70 76 77 68 70 89 105 137 152 152 133 134 157 164 166 165 168 174 181 184 185 187 189 191 195 196 196 195 195 197 199 199 197 200 202 212 215 217 222 227 225 226 228 233 237 238 234 218 218 219 214 190 201 200 202
2 3 11 14 14 14 12 24 47 55 64 64 53 70 83 80 84 107 130 148 160 162 157 163 169 176 174 181 182 185 190 194 198 199 199 199 200 201 201 200 199 198 198 205 208 218 222 226 227 229 230 231 236 234 224 218 215 213 218 209 194 201 198
1 0 0 6 12 19 22 23 32 41 49 52 50 56 63 70 83 113 140 153 154 155 160 162 169 175 185 184 178 180 187 195 191 191 196 197 198 202 203 203 203 203 200 203 203 217 222 224 229 228 226 229 226 224 225 222 217 215 213 211 206 206 200
0 2 3 5 5 17 30 23 26 33 42 42 42 48 54 55 55 49 78 122 148 154 163 167 172 172 172 175 175 185 185 197 188 196 196 191 176 72 28 252 220 214 213 210 206 204 206 211 213 211 213 217 222 221 225 224 223 219 207 209 199 202 204
357 360 3 5 4 16 24 30 25 29 32 33 32 40 44 43 38 37 36 38 76 126 132 143 149 148 157 167 176 180 183 191 196 199 199 180 151 134 103 55 62 26 327 213 59 15 254 228 217 220 216 221 223 223 229 235 236 82 173 182 181 200 220
356 358 3 3 7 11 18 23 24 21 22 16 20 32 33 32 24 24 23 20 21 44 109 127 127 128 138 157 167 168 172 177 187 193 169 157 151 158 155 140 70 47 38 27 24 21 9 341 311 311 289 222 217 81 51 58 83 101 122 127 133 131 119
4 8 4 7 13 14 14 14 20 27 21 13 16 23 25 28 21 11 10 9 9 11 37 81 125 126 127 134 132 136 156 162 175 188 171 149 159 162 166 157 144 90 38 36 47 54 48 35 15 356 330 281 247 148 93 59 74 99 99 99 90 86 85